Weather reports worldwide

Advertisment
S. Maria Di Leuca, Italy (16360): temperature & dewpoint: 06.12.2019 12:00:00 - 12.12.2019 12:00:00 (CET)S. Maria Di Leuca, Italy (16360): wind speed: 06.12.2019 12:00:00 - 12.12.2019 12:00:00 (CET)S. Maria Di Leuca, Italy (16360): wind direction: 06.12.2019 12:00:00 - 12.12.2019 12:00:00 (CET)S. Maria Di Leuca, Italy (16360): reduced air pressure: 06.12.2019 12:00:00 - 12.12.2019 12:00:00 (CET)S. Maria Di Leuca, Italy (16360): visibility: 06.12.2019 12:00:00 - 12.12.2019 12:00:00 (CET)S. Maria Di Leuca, Italy (16360): sunshine duration: 06.12.2019 12:00:00 - 12.12.2019 12:00:00 (CET)
Date & Time tt [°C] td [°C] ff [km/h] ff [kn] dd ppp [hPa] vv [km] sd [min]
12.12.2019 12:00:00 - - - - - - - -
12.12.2019 11:00:00 13,0 10,5 8 4 N 1005,4 10 12
12.12.2019 10:00:00 12,4 10,5 9 5 WNW 1005,7 10 0
12.12.2019 09:00:00 11,8 9,7 13 7 N 1005,5 10 0
12.12.2019 08:00:00 11,8 9,7 15 8 N 1005,3 10 0
12.12.2019 07:00:00 11,4 9,8 13 7 N 1004,7 10 -
12.12.2019 06:00:00 - - - - - - - -
12.12.2019 05:00:00 - - - - - - - -
12.12.2019 04:00:00 - - - - - - - -
12.12.2019 03:00:00 - - - - - - - -
12.12.2019 02:00:00 - - - - - - - -
12.12.2019 01:00:00 - - - - - - - -
12.12.2019 00:00:00 - - - - - - - -
11.12.2019 23:00:00 - - - - - - - -
11.12.2019 22:00:00 - - - - - - - -
11.12.2019 21:00:00 - - - - - - - -
11.12.2019 20:00:00 - - - - - - - -
11.12.2019 19:00:00 11,0 9,6 5 3 NNW 1006,1 10 -
11.12.2019 18:00:00 11,0 9,6 9 5 WNW 1005,4 10 -
11.12.2019 17:00:00 11,4 9,8 5 3 S 1005,4 10 -
11.12.2019 16:00:00 11,6 9,4 9 5 SSW 1004,9 10 0
11.12.2019 15:00:00 11,8 10,2 11 6 E 1004,9 10 0
11.12.2019 14:00:00 12,0 9,2 13 7 E 1004,9 10 0
11.12.2019 13:00:00 12,0 9,9 9 5 ENE 1004,9 10 0
11.12.2019 12:00:00 11,8 9,0 21 11 NNE 1004,9 10 0
11.12.2019 11:00:00 11,8 9,9 21 11 NE 1005,4 10 0
11.12.2019 10:00:00 11,8 10,5 15 8 NE 1005,4 10 0
11.12.2019 09:00:00 11,2 9,1 21 11 ENE 1004,9 10 0
11.12.2019 08:00:00 11,2 9,0 21 11 E 1004,4 10 0
11.12.2019 07:00:00 11,2 8,4 24 13 NNE 1004,3 10 0
11.12.2019 06:00:00 - - - - - - - -
11.12.2019 05:00:00 - - - - - - - -
11.12.2019 04:00:00 - - - - - - - -
11.12.2019 03:00:00 - - - - - - - -
11.12.2019 02:00:00 - - - - - - - -
11.12.2019 01:00:00 - - - - - - - -
11.12.2019 00:00:00 - - - - - - - -
10.12.2019 23:00:00 - - - - - - - -
10.12.2019 22:00:00 - - - - - - - -
10.12.2019 21:00:00 - - - - - - - -
10.12.2019 20:00:00 - - - - - - - -
10.12.2019 19:00:00 - - - - - - - -
10.12.2019 18:00:00 - - - - - - - -
10.12.2019 17:00:00 13,0 11,6 13 7 NE 1006,2 10 -
10.12.2019 16:00:00 13,0 12,1 11 6 NNE 1006,3 15 42
10.12.2019 15:00:00 13,0 9,6 4 2 NNE 1006,3 15 0
10.12.2019 14:00:00 13,0 10,5 4 2 ENE 1006,1 15 0
10.12.2019 13:00:00 13,0 10,9 4 2 SE 1006,5 15 0
10.12.2019 12:00:00 13,0 10,9 8 4 SE 1006,8 15 0
10.12.2019 11:00:00 14,2 11,5 9 5 SE 1007,2 15 54
10.12.2019 10:00:00 13,2 10,7 8 4 SE 1007,2 10 0
10.12.2019 09:00:00 13,2 11,6 5 3 ESE 1007,2 15 0
10.12.2019 08:00:00 13,0 13,0 9 5 SE 1007,3 15 0
10.12.2019 07:00:00 13,8 10,4 4 2 NW 1007,0 15 0
10.12.2019 06:00:00 - - - - - - - -
10.12.2019 05:00:00 - - - - - - - -
10.12.2019 04:00:00 - - - - - - - -
10.12.2019 03:00:00 - - - - - - - -
10.12.2019 02:00:00 - - - - - - - -
10.12.2019 01:00:00 - - - - - - - -
10.12.2019 00:00:00 - - - - - - - -
09.12.2019 23:00:00 - - - - - - - -
09.12.2019 22:00:00 - - - - - - - -
09.12.2019 21:00:00 - - - - - - - -
09.12.2019 20:00:00 - - - - - - - -
09.12.2019 19:00:00 - - - - - - - -
09.12.2019 18:00:00 - - - - - - - -
09.12.2019 17:00:00 15,0 12,7 13 7 WSW 1010,2 10 0
09.12.2019 16:00:00 15,4 13,6 13 7 WSW 1010,5 10 0
09.12.2019 15:00:00 16,0 14,0 16 9 SSW 1011,1 10 30
09.12.2019 14:00:00 15,4 13,4 15 8 SW 1011,7 10 12
09.12.2019 13:00:00 15,0 13,0 21 11 SSW 1013,0 6 0
09.12.2019 12:00:00 15,0 12,0 15 8 SSW 1014,0 10 0
09.12.2019 11:00:00 15,0 12,5 11 6 SSE 1015,0 10 12
09.12.2019 10:00:00 13,6 11,5 13 7 SSE 1015,1 10 12
09.12.2019 09:00:00 11,0 9,2 5 3 SE 1015,3 10 30
09.12.2019 08:00:00 10,6 8,9 5 3 ESE 1015,3 10 0
09.12.2019 07:00:00 10,4 7,8 4 2 E 1013,6 10 -
09.12.2019 06:00:00 - - - - - - - -
09.12.2019 05:00:00 - - - - - - - -
09.12.2019 04:00:00 - - - - - - - -
09.12.2019 03:00:00 - - - - - - - -
09.12.2019 02:00:00 - - - - - - - -
09.12.2019 01:00:00 - - - - - - - -
09.12.2019 00:00:00 - - - - - - - -
08.12.2019 23:00:00 - - - - - - - -
08.12.2019 22:00:00 - - - - - - - -
08.12.2019 21:00:00 - - - - - - - -
08.12.2019 20:00:00 - - - - - - - -
08.12.2019 19:00:00 14,0 13,0 8 4 ENE - 10 -
08.12.2019 18:00:00 14,0 12,7 8 4 NE 1019,7 12 -
08.12.2019 17:00:00 15,0 12,3 4 2 SSW 1019,6 15 0
08.12.2019 16:00:00 16,0 12,4 5 3 WSW 1019,6 20 60
08.12.2019 15:00:00 16,4 12,5 8 4 WSW 1019,5 20 60
08.12.2019 14:00:00 15,8 12,9 11 6 WSW 1019,9 20 60
08.12.2019 13:00:00 16,4 12,4 8 4 SW 1020,0 20 54
08.12.2019 12:00:00 16,0 12,5 9 5 WSW 1020,7 20 48
08.12.2019 11:00:00 16,2 10,9 9 5 ENE 1021,0 20 60
08.12.2019 10:00:00 15,2 11,8 11 6 NNE 1021,1 20 60
08.12.2019 09:00:00 13,8 11,3 11 6 N 1020,8 15 60
08.12.2019 08:00:00 12,0 10,1 15 8 N 1020,4 12 18
08.12.2019 07:00:00 11,2 9,6 9 5 N 1020,0 12 -
08.12.2019 06:00:00 - - - - - - - -
08.12.2019 05:00:00 - - - - - - - -
08.12.2019 04:00:00 - - - - - - - -
08.12.2019 03:00:00 - - - - - - - -
08.12.2019 02:00:00 - - - - - - - -
08.12.2019 01:00:00 - - - - - - - -
08.12.2019 00:00:00 - - - - - - - -
07.12.2019 23:00:00 - - - - - - - -
07.12.2019 22:00:00 - - - - - - - -
07.12.2019 21:00:00 - - - - - - - -
07.12.2019 20:00:00 - - - - - - - -
07.12.2019 19:00:00 - - - - - - - -
07.12.2019 18:00:00 15,0 10,6 8 4 N 1019,3 12 -
07.12.2019 17:00:00 15,2 10,6 8 4 NNW 1019,1 15 0
07.12.2019 16:00:00 16,4 10,5 8 4 NW 1019,0 20 54
07.12.2019 15:00:00 17,0 9,4 15 8 WNW 1018,8 20 60
07.12.2019 14:00:00 17,0 11,7 9 5 WNW 1018,9 20 60
07.12.2019 13:00:00 17,0 14,3 8 4 NNW 1019,4 15 60
07.12.2019 12:00:00 16,6 12,4 11 6 WNW 1019,5 15 54
07.12.2019 11:00:00 16,2 13,5 15 8 W 1020,0 15 60
07.12.2019 10:00:00 15,8 13,3 9 5 W 1020,1 10 60
07.12.2019 09:00:00 14,4 11,4 8 4 WNW 1019,8 12 42
07.12.2019 08:00:00 13,8 10,8 8 4 WNW 1019,4 12 0
07.12.2019 07:00:00 13,2 10,2 9 5 W 1019,2 10 -
07.12.2019 06:00:00 - - - - - - - -
07.12.2019 05:00:00 - - - - - - - -
07.12.2019 04:00:00 - - - - - - - -
07.12.2019 03:00:00 - - - - - - - -
07.12.2019 02:00:00 - - - - - - - -
07.12.2019 01:00:00 - - - - - - - -
07.12.2019 00:00:00 - - - - - - - -
06.12.2019 23:00:00 - - - - - - - -
06.12.2019 22:00:00 - - - - - - - -
06.12.2019 21:00:00 - - - - - - - -
06.12.2019 20:00:00 - - - - - - - -
06.12.2019 19:00:00 - - - - - - - -
06.12.2019 18:00:00 15,4 12,9 13 7 SSE 1020,7 6 -
06.12.2019 17:00:00 15,4 12,9 11 6 SSE 1021,0 6 -
06.12.2019 16:00:00 15,4 13,8 15 8 SSE 1021,4 6 0
06.12.2019 15:00:00 16,0 14,0 9 5 ESE 1021,7 10 0
06.12.2019 14:00:00 17,0 13,9 9 5 SE 1022,2 10 0
06.12.2019 13:00:00 17,4 14,3 9 5 SSE 1023,2 10 0
06.12.2019 12:00:00 17,4 15,0 9 5 SSE 1023,8 10 0

tt = temperature
td = dewpoint
ff = wind speed
dd = wind direction
ppp = reduced air pressure
vv = visibility
sd = sunshine duration

Next stations